DW3900 Weather Reports


time (UTC)temp
C
wind
direction
speed
KPH
gust
KPH
rain 1hr
cm
rain 24hr
cm
rain mn
cm
humidity
%
barometer
mb
20260504081523 12 176 14.5 22.5 0.00 0.00 0.00 63 1010.2
20260504060120 13 188 8.0 17.7 0.00 0.00 0.00 60 1011.6
20260504050103 13 172 9.7 16.1 0.00 0.00 0.00 59 1012.0
20260504044550 13 181 8.0 17.7 0.00 0.00 0.00 61 1012.1
20260504043052 12 186 4.8 11.3 0.00 0.00 0.00 62 1012.3
20260504041548 12 163 0.0 8.0 0.00 0.00 0.00 62 1012.5
20260504040045 12 170 1.6 6.4 0.00 0.00 0.00 62 1012.6
20260504034544 12 159 4.8 8.0 0.00 0.00 0.00 63 1012.6
20260504033048 13 189 1.6 9.7 0.00 0.00 0.00 61 1012.8
20260504031547 14 191 1.6 4.8 0.00 0.00 0.00 55 1013.0
20260504030044 15 191 0.0 0.0 0.00 0.00 0.00 52 1013.0
20260504024543 15 190 3.2 12.9 0.00 0.00 0.00 50 1012.8
20260504023042 15 173 6.4 12.9 0.00 0.00 0.00 50 1012.4
20260504021541 15 189 9.7 14.5 0.00 0.00 0.00 49 1012.0
20260504020041 16 198 9.7 17.7 0.00 0.00 0.00 49 1011.9
20260504014553 16 173 16.1 22.5 0.00 0.00 0.00 48 1011.9
20260504013041 16 178 12.9 17.7 0.00 0.00 0.00 49 1012.1
20260504011539 16 203 9.7 16.1 0.00 0.00 0.00 49 1012.3
20260504010037 16 209 4.8 9.7 0.00 0.00 0.00 49 1012.6
20260504004534 16 194 4.8 14.5 0.00 0.00 0.00 48 1012.5
20260504003033 17 207 3.2 12.9 0.00 0.00 0.00 47 1012.5
20260504001540 17 175 6.4 14.5 0.00 0.00 0.00 45 1012.3
20260504000040 18 186 9.7 16.1 0.00 0.00 0.00 43 1012.5
20260503234529 18 211 4.8 14.5 0.00 0.00 0.00 43 1012.6
20260503233028 18 209 11.3 22.5 0.00 0.00 0.00 42 1012.8
20260503231526 18 212 11.3 19.3 0.00 0.00 0.00 42 1013.1
20260503230031 18 192 9.7 22.5 0.00 0.00 0.00 41 1013.2
20260503224523 18 236 11.3 20.9 0.00 0.00 0.00 43 1013.4
20260503223019 18 206 14.5 22.5 0.00 0.00 0.00 40 1013.7
20260503221517 18 244 3.2 14.5 0.00 0.00 0.00 43 1014.2
20260503220020 19 214 6.4 24.1 0.00 0.00 0.00 41 1014.4
20260503214523 19 236 12.9 27.4 0.00 0.10 0.00 38 1014.5
20260503213010 19 224 3.2 17.7 0.00 0.10 0.00 40 1014.7
20260503211510 19 225 12.9 27.4 0.00 0.10 0.00 39 1015.0
20260503210013 18 190 11.3 22.5 0.00 0.10 0.00 38 1015.3
20260503204504 19 213 4.8 22.5 0.00 0.10 0.00 37 1015.5
20260503203108 19 231 6.4 19.3 0.00 0.10 0.00 41 1015.8
20260503201557 19 232 6.4 30.6 0.00 0.10 0.00 46 1016.1
20260503200055 18 213 8.0 22.5 0.00 0.10 0.00 43 1016.4
20260503194608 18 227 16.1 24.1 0.00 0.10 0.00 41 1016.9
20260503193050 18 197 17.7 30.6 0.00 0.10 0.00 43 1017.2
20260503191545 18 221 6.4 16.1 0.00 0.10 0.00 43 1017.5
20260503190049 18 219 14.5 25.7 0.00 0.10 0.00 42 1017.7
20260503184541 17 232 4.8 17.7 0.00 0.10 0.00 42 1017.9
20260503183037 17 215 9.7 17.7 0.00 0.10 0.00 44 1018.2
20260503181536 17 226 4.8 19.3 0.00 0.10 0.00 45 1018.2
20260503180033 17 194 17.7 24.1 0.00 0.10 0.00 42 1018.4
20260503174531 17 221 14.5 24.1 0.00 0.10 0.00 43 1018.6
20260503173044 16 206 8.0 22.5 0.00 0.10 0.00 43 1018.8
20260503171528 16 167 16.1 27.4 0.00 0.10 0.00 46 1019.1